Yatton Keynell, United Kingdom

6:37 AM BST on April 21, 2019 (GMT +0100)
Yatton Keynell

Weather History for 03740 - April, 2008

Change the Weather History Date:

Saturday, April 19, 2008

  Actual Average Record
Temperature  
Mean Temperature 44 °F -  
Max Temperature 46 °F 57 °F - ()
Min Temperature 41 °F 42 °F - ()
Degree Days  
Heating Degree Days 22    
Moisture  
Dew Point 40 °F    
Average Humidity 85    
Maximum Humidity 100    
Minimum Humidity 73    
Precipitation  
Precipitation 0.02 in 0.07 in - ()
Sea Level Pressure  
Sea Level Pressure 29.46 in    
Wind  
Wind Speed 19 mph ()    
Max Wind Speed 25 mph    
Max Gust Speed -    
Visibility 4.0 miles    
Events Rain    
T = Trace of Precipitation, MM = Missing Value Source: Averaged Metar Reports

Daily Weather History Graph

Daily Weather History Graph

Search for Another Location

Airport or City:

Astronomy

Apr. 19, 2008 Rise Set
Actual Time 6:03 AM BST 8:11 PM BST
Civil Twilight 5:27 AM BST 8:48 PM BST
Nautical Twilight 4:42 AM BST 9:33 PM BST
Astronomical Twilight 3:50 AM BST 10:25 PM BST
Moon 7:39 PM BST (4/19) 5:17 AM BST (4/19)
Length of Visible Light 15h 21m
Length of Day
14h 08m
Waxing Gibbous, 99% of the Moon is Illuminated
Apr 19
Waxing Gibbous
Apr 20
Full
Apr 28
Last Quarter
May 5
New
May 12
First Quarter

Hourly Weather History & Observations

Time (BST) Temp. Windchill Dew Point Humidity Pressure Visibility Wind Dir Wind Speed Gust Speed Precip Events Conditions
12:50 AM 43 °F - 38 °F 74% 29.41 in 6 mi NE 23.0 mph - -   Partly Cloudy
12:50 AM 42.8 °F 33.5 °F 37.4 °F 81% 29.39 in 6.2 mi NE 23.0 mph - N/A   Overcast
1:50 AM 42.8 °F 33.1 °F 37.4 °F 81% 29.39 in 6.2 mi NE 25.3 mph - N/A   Overcast
2:50 AM 42.8 °F 33.5 °F 37.4 °F 81% 29.39 in 6.2 mi NE 23.0 mph - N/A   Overcast
3:50 AM 42 °F - 38 °F 81% 29.41 in 6 mi NE 24.2 mph - -   Overcast
3:50 AM 42.8 °F 33.3 °F 37.4 °F 81% 29.39 in 6.2 mi NE 24.2 mph - N/A   Overcast
4:50 AM 42.8 °F 33.8 °F 37.4 °F 81% 29.39 in 6.2 mi NE 21.9 mph - N/A   Overcast
5:50 AM 42.8 °F 33.8 °F 37.4 °F 81% 29.39 in 4.3 mi NE 21.9 mph - N/A   Haze
6:50 AM 42 °F - 39 °F 84% 29.42 in 4 mi NE 19.6 mph - - Rain Light Rain
6:50 AM 42.8 °F 34.3 °F 39.2 °F 87% 29.39 in 4.3 mi NE 19.6 mph - N/A Rain Light Rain
7:50 AM 42.8 °F 34.3 °F 39.2 °F 87% 29.42 in 4.3 mi NE 19.6 mph - N/A Rain Light Rain
8:50 AM 42.8 °F 34.5 °F 41.0 °F 93% 29.42 in 3.7 mi NE 18.4 mph - N/A Rain Light Rain
9:50 AM 44 °F - 40 °F 80% 29.46 in 4 mi ENE 19.6 mph - - Rain Light Rain
9:50 AM 44.6 °F 36.6 °F 39.2 °F 81% 29.44 in 4.3 mi ENE 19.6 mph - N/A Rain Light Rain
10:50 AM 46.4 °F 38.3 °F 39.2 °F 76% 29.44 in 4.3 mi ENE 23.0 mph - N/A   Haze
11:50 AM 46.4 °F 38.3 °F 41.0 °F 81% 29.44 in 4.3 mi NE 23.0 mph - N/A Rain Light Rain
12:50 PM 46 °F - 40 °F 73% 29.48 in 4 mi NE 20.7 mph - - Rain Light Rain
12:50 PM 46.4 °F 38.7 °F 41.0 °F 81% 29.44 in 4.3 mi NE 20.7 mph - N/A Rain Light Rain
1:50 PM 46.4 °F 38.3 °F 41.0 °F 81% 29.47 in 4.3 mi NE 23.0 mph - N/A Rain Light Rain
2:50 PM 44.6 °F 36.1 °F 41.0 °F 87% 29.47 in 3.7 mi NE 21.9 mph - N/A Rain Light Rain
3:50 PM 46 °F - 40 °F 73% 29.50 in 4 mi ENE 20.7 mph - - Rain Light Rain
3:50 PM 46.4 °F 38.7 °F 41.0 °F 81% 29.47 in 3.7 mi ENE 20.7 mph - N/A Rain Light Rain
4:50 PM 44.6 °F 36.9 °F 41.0 °F 87% 29.50 in 3.1 mi ENE 18.4 mph - N/A   Haze
5:50 PM 44.6 °F 37.2 °F 41.0 °F 87% 29.50 in 3.1 mi ENE 17.3 mph - N/A   Light Drizzle
6:50 PM 44 °F - 42 °F 91% 29.54 in 2 mi ENE 15.0 mph - - Rain Light Rain
6:50 PM 44.6 °F 37.8 °F 42.8 °F 93% 29.50 in - ENE 15.0 mph - N/A Rain Light Rain
7:50 PM 42.8 °F 35.1 °F 42.8 °F 100% 29.53 in 2.2 mi ENE 16.1 mph - N/A   Light Drizzle
8:50 PM 42.8 °F 35.4 °F 42.8 °F 100% 29.53 in 1.7 mi ENE 15.0 mph - N/A   Overcast
9:50 PM 43 °F - 42 °F 95% 29.58 in 2 mi ENE 13.8 mph - -   Mist
9:50 PM 42.8 °F 35.8 °F 42.8 °F 100% 29.56 in 1.7 mi ENE 13.8 mph - N/A   Overcast
10:50 PM 42.8 °F 35.8 °F 42.8 °F 100% 29.56 in 1.4 mi ENE 13.8 mph - N/A   Overcast
11:50 PM 42.8 °F 36.2 °F 41.0 °F 93% 29.56 in 1.5 mi NE 12.7 mph - N/A Rain Light Rain